Theta_e
297 291 289 289 291 291 293 295 295 292 293 291 288 286 285 285 286 287 286 289 290 289 287 288 288 290 293 295 291 288 288 289 289 291 294 295 293 295 299 302 304 306 309 312 311 312 313 316 319 320 320 320 319 320 321 321 321 322 323 322 322 323 323 325 326 328 329 327 328 328 327 325 327 327 327 326 325 324 323 321 321 322 322 322 321 321
295 290 290 291 291 292 292 291 289 290 291 289 286 284 285 284 284 286 289 290 289 290 285 285 287 288 291 294 293 287 288 289 290 291 292 294 294 293 294 297 299 303 303 301 303 305 310 313 315 317 318 317 318 319 320 321 321 322 322 322 323 323 322 324 325 327 328 330 330 328 328 328 328 327 326 326 326 325 323 321 322 323 324 324 323 322
290 289 290 291 291 291 290 291 289 290 289 287 287 284 283 284 284 286 287 289 288 289 287 285 287 289 291 293 295 289 290 289 291 292 294 294 294 293 291 292 295 297 299 300 301 303 306 309 312 315 317 319 320 321 321 322 322 321 322 322 323 323 322 323 324 326 327 328 329 329 329 329 326 326 329 329 327 324 324 323 323 324 325 325 324 323
286 289 291 289 291 291 289 290 290 289 289 286 284 282 283 283 285 285 288 289 289 288 286 283 284 287 290 292 292 290 290 291 291 291 293 294 294 294 294 294 294 294 296 298 300 300 303 306 309 312 315 318 319 320 320 321 321 322 322 322 323 323 322 323 323 322 326 326 326 327 326 325 328 326 323 326 326 326 325 324 323 323 324 324 325 324
287 289 290 288 291 292 289 287 288 288 286 286 286 283 282 284 285 287 286 286 287 287 285 285 285 287 288 290 292 290 287 288 290 289 290 290 292 295 294 293 293 294 295 297 298 298 299 302 306 310 313 316 317 319 320 321 322 323 322 323 323 323 323 323 322 322 323 321 319 320 317 317 318 316 319 322 324 326 324 325 325 325 323 323 324 325
286 290 288 289 288 290 288 285 286 288 285 286 286 286 284 283 285 285 285 286 282 280 284 286 280 281 283 286 289 292 285 287 288 290 291 292 292 292 292 294 295 295 295 296 297 298 298 300 303 306 310 313 316 318 320 321 322 322 323 322 323 323 324 324 323 322 322 322 323 322 322 320 321 322 320 320 321 323 324 325 326 326 325 324 323 323
288 286 291 288 288 288 289 289 287 290 287 285 287 288 287 286 285 285 285 286 281 280 285 284 283 278 282 286 288 287 283 286 287 286 289 291 293 291 293 294 295 295 296 295 295 295 295 297 298 302 307 311 314 317 319 320 321 322 323 323 323 323 324 324 323 322 321 322 323 323 324 324 323 323 325 325 322 326 326 326 326 326 325 325 324 323
284 283 287 286 286 287 286 287 286 289 286 284 287 288 288 286 285 284 285 285 281 282 284 284 283 278 280 287 287 283 283 285 286 287 288 289 291 292 293 294 295 296 296 296 296 295 295 296 297 299 303 308 313 316 318 319 320 321 321 322 322 323 322 324 323 322 323 323 323 322 322 323 323 323 324 323 319 319 321 325 325 325 325 324 325 324
287 283 286 285 286 285 287 288 286 289 287 284 286 289 287 288 287 286 285 282 281 282 280 281 283 281 278 281 283 283 286 287 287 288 288 290 291 292 292 294 295 295 296 295 296 296 295 295 296 298 300 304 309 313 316 318 320 321 321 321 322 322 322 322 322 322 322 322 323 323 323 322 322 323 322 313 313 316 316 322 323 324 324 324 324 325
285 287 288 289 287 286 284 285 287 288 287 286 287 290 289 288 288 287 282 283 281 279 278 280 281 279 281 280 284 283 284 285 286 286 288 289 291 292 292 292 293 293 293 294 294 295 296 295 295 296 297 297 304 310 314 316 318 319 320 319 320 321 322 322 322 321 322 322 321 323 322 322 322 320 314 312 313 315 313 318 318 321 323 322 322 323
285 288 290 287 287 286 284 284 284 289 288 288 290 289 288 286 284 282 283 279 277 273 279 281 281 281 278 282 286 285 286 287 288 287 287 287 288 289 290 291 292 292 292 293 293 294 295 295 294 293 295 297 298 305 310 313 316 317 318 319 318 320 321 320 321 321 321 322 322 323 323 322 322 320 318 315 313 313 311 316 314 317 320 321 322 322
285 285 286 285 286 285 287 285 285 285 286 290 286 285 288 285 284 284 282 282 276 272 276 278 279 280 277 278 282 286 285 283 290 289 291 291 291 292 288 288 289 289 289 290 291 292 293 292 292 291 294 294 296 300 306 311 313 314 316 317 318 319 319 320 321 321 322 322 322 322 323 322 322 321 318 318 318 314 314 313 313 313 314 317 319 320
283 283 283 287 287 288 286 286 284 284 286 285 285 287 284 280 282 278 280 276 276 273 278 276 278 278 280 282 285 284 285 286 284 288 290 290 290 290 289 288 289 289 289 290 292 292 292 292 293 292 293 292 293 298 303 308 311 313 315 316 317 318 319 320 320 320 321 322 322 322 322 322 322 321 320 319 319 316 315 313 313 310 311 313 314 317
281 281 283 285 287 287 289 285 281 280 284 284 285 283 282 277 277 276 276 270 270 276 277 279 279 278 280 281 289 289 291 291 290 288 289 290 290 291 291 290 290 290 290 292 293 293 293 292 292 292 293 294 295 296 300 304 308 310 313 314 316 318 318 318 319 320 320 321 321 322 322 322 321 321 320 319 319 317 316 315 314 313 314 313 315 316
278 277 284 284 283 285 287 288 286 281 283 285 284 287 284 282 277 276 275 276 276 276 276 277 277 276 277 283 284 290 292 290 287 287 287 287 288 289 288 288 289 290 291 291 291 292 293 293 291 292 292 293 293 294 297 301 305 307 310 312 313 315 316 316 317 318 319 320 320 320 321 321 320 320 319 319 318 317 315 314 314 313 312 313 314 315
283 282 282 284 285 286 286 286 287 285 285 283 282 284 281 284 281 276 272 273 271 273 273 273 278 278 282 283 286 285 285 287 288 288 287 288 289 287 287 288 290 292 293 292 291 292 291 291 292 293 293 293 292 293 294 297 302 305 308 309 312 314 315 314 314 317 318 319 318 317 318 318 317 314 316 315 313 315 315 314 314 313 312 313 312 311
281 280 283 283 284 286 287 286 287 288 280 282 283 283 284 283 281 275 274 276 273 272 275 272 277 280 280 287 292 287 284 287 287 287 286 287 287 285 287 289 289 291 291 290 290 291 292 291 290 292 293 294 293 293 294 296 299 303 305 306 307 309 307 310 311 314 315 315 314 314 315 315 314 314 315 315 313 314 313 313 313 312 311 310 309 309
283 280 282 283 282 285 283 284 284 283 285 283 279 284 284 284 282 279 274 268 271 271 274 273 280 278 279 281 284 285 286 291 291 288 286 285 284 285 289 290 290 290 289 289 288 288 289 290 291 291 292 293 294 294 294 295 295 298 301 303 305 305 307 306 308 310 311 311 312 312 312 313 314 315 314 314 314 312 311 307 308 305 306 307 307 306
287 278 283 282 283 286 284 286 286 286 285 286 282 286 287 278 278 277 273 269 267 268 268 269 274 275 278 283 281 284 285 288 288 289 287 288 287 286 287 287 287 286 287 288 289 288 289 289 290 290 292 292 293 294 294 294 294 294 295 297 301 304 305 306 306 306 307 309 312 312 312 312 312 313 313 312 311 310 310 308 307 308 309 303 303 303
285 278 279 283 283 285 285 286 281 283 285 285 285 284 283 282 279 275 278 272 274 269 268 270 267 279 280 280 281 285 282 285 285 284 286 287 286 285 285 286 287 287 287 288 288 288 288 289 289 290 292 293 293 293 294 294 294 295 295 295 295 297 298 299 302 304 307 307 310 310 309 309 311 311 312 310 310 309 310 308 307 306 305 306 303 305
283 283 275 282 283 284 283 283 284 285 282 281 281 281 283 281 281 279 277 275 276 264 263 266 270 276 279 284 287 290 291 291 291 291 288 288 287 286 285 286 286 287 287 287 287 288 289 288 288 290 291 291 293 293 293 293 295 295 293 294 295 298 298 300 301 303 306 305 307 307 309 309 309 308 307 307 308 309 308 308 306 308 307 303 303 302
281 282 279 280 280 281 280 282 282 285 287 283 282 281 283 279 278 279 278 277 270 273 270 266 275 279 280 284 289 289 291 290 291 292 289 286 286 287 287 286 286 287 288 287 287 287 288 287 289 291 290 290 293 294 295 296 296 295 294 293 294 295 296 298 299 303 305 305 306 306 307 307 306 306 306 307 307 308 307 306 306 304 302 303 297 299
282 278 282 275 278 280 284 282 281 280 284 284 285 284 284 283 279 275 276 275 274 273 273 269 268 278 284 286 288 289 290 287 284 284 287 286 286 286 286 286 286 286 288 289 287 287 287 287 288 289 289 292 293 295 295 295 297 296 296 296 295 296 296 297 300 301 304 304 305 305 305 304 303 303 303 304 302 302 301 300 300 301 302 299 295 294
289 280 278 278 281 280 281 282 282 282 284 285 284 280 283 284 284 280 275 275 279 272 274 272 272 278 284 280 281 282 281 280 281 283 285 285 285 285 285 285 285 288 290 289 288 286 286 285 286 289 292 294 295 294 295 296 296 297 297 297 297 297 297 299 300 301 302 302 301 301 300 300 299 300 301 301 299 299 298 298 298 298 299 296 296 295
284 280 283 274 273 276 278 279 282 283 284 280 281 280 281 281 279 274 274 274 275 276 277 273 276 279 283 278 280 281 283 285 285 283 283 285 286 285 285 285 285 287 289 289 288 287 287 287 289 290 290 291 292 291 292 294 296 296 296 296 297 297 297 297 298 300 299 299 298 298 299 298 299 300 300 299 298 297 296 296 296 296 296 296 294 293
279 281 282 277 275 273 272 275 278 280 281 279 278 280 281 282 279 281 277 273 274 275 278 273 280 283 281 280 284 283 282 284 284 282 281 283 285 286 285 285 286 286 288 288 287 288 289 288 285 287 287 287 288 291 292 291 292 293 294 294 295 295 293 293 295 297 298 298 299 298 298 298 299 300 299 298 296 296 295 295 295 294 293 295 294 291
279 282 285 283 282 280 280 279 282 285 282 281 282 282 282 281 282 282 278 273 278 278 277 282 283 280 282 284 283 285 283 285 284 281 283 284 283 283 283 284 285 285 286 288 287 287 285 287 289 287 285 285 287 288 289 290 291 291 291 291 292 293 294 293 295 296 297 297 299 299 298 298 298 298 297 296 294 293 293 293 292 293 292 291 292 291
281 282 285 285 285 285 281 279 284 288 284 284 283 284 285 285 285 285 283 282 285 278 277 285 284 283 281 278 279 281 282 281 281 281 282 281 283 285 285 284 287 286 287 285 285 287 289 289 287 287 287 286 287 286 287 288 290 292 293 293 291 291 293 293 295 295 296 297 298 298 295 293 293 293 293 292 292 292 291 291 291 290 290 291 291 290
285 284 284 284 284 282 281 284 286 287 287 286 286 286 285 285 284 284 285 286 284 282 281 281 281 282 282 282 282 283 284 284 284 283 283 284 283 283 283 284 284 285 286 287 288 288 288 289 289 288 287 287 286 286 286 287 288 288 289 290 290 291 293 292 295 295 295 296 296 293 291 290 290 291 291 291 291 291 291 290 289 289 289 289 288 288
288 283 283 285 282 282 282 283 284 285 283 284 285 285 286 285 284 286 286 286 284 285 285 279 282 282 282 285 285 286 284 283 281 281 282 282 284 285 283 284 285 286 286 288 289 290 289 290 289 288 287 286 287 287 287 286 286 288 290 290 290 291 290 293 294 295 294 294 291 289 290 290 290 291 291 291 291 290 289 289 288 288 288 288 287 287
290 281 286 281 279 280 281 282 283 284 284 283 284 285 285 285 286 286 286 286 285 285 286 282 280 283 284 284 284 284 282 281 283 285 286 286 284 283 283 284 285 287 288 288 289 289 289 289 288 288 287 288 288 288 288 288 287 287 288 289 289 290 290 292 293 293 292 290 289 289 289 290 290 290 290 290 289 289 289 289 288 288 287 286 286 286
287 279 282 282 280 276 278 280 279 280 281 282 282 283 284 284 283 285 284 286 283 284 284 281 282 284 284 284 286 286 284 284 287 287 286 287 285 282 283 286 286 287 288 289 289 289 289 289 289 288 289 288 288 287 287 287 287 287 289 288 289 289 289 291 292 292 291 289 289 290 290 290 290 289 289 289 289 289 288 287 287 286 286 286 286 285
279 279 278 278 280 275 276 278 279 280 280 279 281 284 285 285 286 284 286 285 287 287 283 282 285 285 287 289 287 284 286 288 287 288 288 286 285 285 287 289 289 288 288 289 289 289 289 290 291 291 289 288 288 288 287 287 287 287 287 287 286 287 289 291 291 291 290 289 289 290 289 289 290 289 288 288 287 286 286 286 286 286 286 285 285 285
284 284 279 281 279 274 276 279 279 279 274 278 289 288 286 285 284 283 284 285 286 286 287 289 290 285 285 283 286 287 287 289 292 293 291 291 292 290 288 287 288 289 288 288 288 289 289 289 288 289 288 289 288 288 286 286 287 287 286 285 284 286 287 288 288 288 288 288 288 288 288 288 287 287 286 285 285 285 286 286 285 285 285 284 285 285
287 286 283 281 279 274 274 277 278 275 277 288 282 285 289 288 287 286 288 287 287 288 288 288 289 283 286 289 290 289 289 289 288 290 291 289 288 289 290 289 288 288 288 287 286 287 288 289 288 287 287 287 287 286 286 286 286 285 285 285 286 285 286 285 286 286 286 286 285 285 285 286 285 284 284 284 285 285 285 284 284 284 284 285 285 285
285 285 279 275 277 275 275 278 272 276 286 284 282 282 285 288 288 287 285 287 286 287 288 288 289 290 290 289 286 284 287 288 285 285 286 287 285 288 288 289 290 287 286 288 288 288 287 288 289 289 287 284 285 286 287 287 285 286 285 285 286 285 285 285 285 284 284 284 284 284 284 285 284 284 284 284 284 284 284 284 284 284 283 284 283 283
290 286 285 277 275 277 277 280 281 281 282 285 283 283 285 284 282 284 280 284 288 288 288 288 289 290 290 290 285 284 281 284 284 289 284 285 288 286 289 290 290 288 288 287 285 287 286 287 286 286 284 285 286 286 286 285 286 286 285 285 284 285 284 285 285 284 284 284 283 283 284 284 284 284 284 284 284 284 283 283 283 283 283 283 283 283
291 287 286 284 274 274 276 271 271 273 276 283 285 283 287 286 288 288 286 284 289 290 290 289 289 290 290 287 284 284 285 286 286 288 289 290 288 286 285 287 287 287 286 284 283 283 284 285 286 284 286 285 285 285 284 283 285 285 285 284 283 284 284 284 285 284 283 283 283 283 283 283 284 284 283 283 283 283 283 282 282 282 283 284 283 283
285 286 287 287 278 271 272 276 275 275 280 282 282 286 287 287 288 286 280 281 288 288 290 290 289 290 289 287 286 284 286 284 286 289 292 291 286 285 288 288 287 286 284 284 285 286 285 284 284 284 284 285 285 284 284 284 284 285 284 283 283 283 283 284 284 283 283 282 282 281 282 282 282 283 283 283 282 282 282 282 282 281 282 283 282 282
284 280 282 273 271 276 279 274 277 274 276 280 283 284 286 287 290 286 272 282 284 287 288 289 289 289 289 288 285 286 287 285 287 290 293 288 287 285 285 287 284 283 282 281 282 283 283 283 284 284 285 285 285 283 284 284 285 285 284 283 282 283 283 283 281 280 280 280 280 280 280 281 281 281 282 281 281 281 281 280 280 281 281 281 281 281
277 275 278 281 278 275 280 273 269 276 279 278 280 283 285 290 289 280 277 286 285 288 287 289 289 290 289 285 286 286 288 292 293 289 280 279 285 284 281 280 280 281 281 281 282 283 282 283 285 285 285 284 283 283 283 284 285 284 283 282 282 283 281 279 279 280 280 279 279 279 279 278 280 280 280 280 280 280 279 280 281 280 281 280 280 280
274 278 272 274 277 279 279 279 279 276 278 283 275 285 287 287 275 280 286 282 285 284 285 288 289 285 286 286 287 289 291 291 287 278 282 282 283 282 281 280 280 281 280 280 281 281 281 282 282 282 281 280 282 282 283 284 284 283 282 281 282 279 277 278 278 278 278 278 278 277 277 277 277 278 279 279 279 279 278 277 279 280 280 280 279 278
283 281 279 280 277 271 269 276 270 274 281 284 285 283 285 285 286 284 283 284 285 285 286 285 286 286 288 286 288 289 289 286 288 288 283 281 282 283 282 281 280 281 281 281 282 280 280 281 280 280 278 278 279 280 281 282 282 281 280 281 279 276 277 277 278 278 277 277 276 276 275 275 276 277 278 278 278 278 277 277 278 278 279 279 278 277
286 282 279 281 282 280 278 277 278 282 283 288 289 287 288 286 286 287 289 287 283 283 286 287 284 286 287 289 287 286 286 285 284 283 282 281 281 280 280 280 279 279 280 278 279 279 277 280 278 278 276 277 277 277 278 281 281 278 279 278 274 275 275 276 276 276 276 275 275 274 274 273 274 275 276 277 277 277 277 277 277 277 278 278 278 277
286 287 286 283 279 283 282 284 282 283 287 290 292 289 293 290 284 285 289 289 287 284 282 285 287 285 286 287 287 287 285 284 285 283 285 285 283 281 281 280 280 279 279 279 279 277 278 279 277 276 275 275 275 275 276 277 280 277 278 274 274 275 275 275 275 275 275 274 273 273 272 272 273 274 273 275 277 278 277 276 277 277 275 277 278 278
285 285 279 285 281 282 283 283 283 279 283 288 286 283 292 291 282 283 286 288 285 285 285 287 285 286 285 284 286 282 286 286 285 283 282 281 281 280 278 277 277 276 276 275 275 276 276 275 274 275 275 273 273 274 274 274 277 278 276 273 273 274 274 274 274 274 273 272 272 272 273 273 272 272 273 274 275 277 278 278 278 278 277 277 278 278
284 281 283 279 281 284 284 281 283 283 284 287 290 285 284 286 285 282 283 286 285 283 284 284 285 286 286 285 288 287 286 283 285 285 282 281 280 280 279 279 278 278 278 277 277 275 275 275 275 275 274 274 271 270 271 271 272 274 272 272 272 272 272 273 274 273 272 272 272 271 273 275 275 274 273 271 272 274 275 276 277 277 277 278 278 278
283 282 286 278 283 285 286 282 285 281 285 288 288 287 288 288 285 283 283 282 282 281 283 281 282 283 283 285 286 286 285 284 285 284 282 282 282 281 279 279 278 277 275 275 275 273 274 275 276 275 274 275 271 269 269 269 268 270 271 271 271 271 272 273 273 273 272 272 272 273 273 274 275 274 273 272 274 275 274 273 275 277 278 278 279 279
284 286 284 282 283 281 279 281 282 281 285 285 285 285 286 289 290 286 281 282 282 283 282 280 281 283 286 288 285 284 283 283 284 284 284 282 280 280 280 279 278 278 277 276 274 274 277 276 275 275 274 274 270 268 267 267 267 268 270 271 270 271 273 273 272 272 271 271 272 272 272 273 274 273 273 272 271 270 272 274 276 276 275 274 276 278
286 286 284 284 284 283 285 284 284 284 282 286 286 289 288 287 287 285 282 282 281 283 283 283 281 280 282 283 284 284 286 285 283 282 283 282 282 281 279 279 277 277 275 274 274 273 273 273 274 274 273 271 268 267 266 265 266 266 268 268 269 271 273 272 271 271 271 271 271 271 272 272 271 271 272 273 273 273 272 278 279 277 276 275 280 281
288 287 286 285 286 286 288 287 289 292 290 291 291 290 290 287 287 286 286 286 285 283 284 285 283 280 281 280 279 283 283 284 283 281 280 280 280 279 280 279 278 277 276 274 274 272 273 273 272 272 271 270 268 267 266 266 265 265 266 268 268 270 272 272 272 271 271 271 271 272 272 272 271 271 272 272 273 273 274 274 276 280 280 280 281 281
Wind_Speed
3 8 11 11 9 10 9 10 7 6 8 4 4 4 6 6 3 1 3 2 0 1 5 7 6 7 11 13 6 1 1 2 4 6 8 9 8 7 8 9 10 10 16 8 6 6 7 9 9 9 7 8 7 8 8 10 10 10 10 9 12 10 9 9 8 8 9 9 8 8 10 10 7 7 6 7 7 7 7 6 6 7 6 6 7 6
4 8 10 5 5 9 8 4 6 6 6 8 6 5 6 4 4 3 3 1 3 3 3 1 3 9 11 15 11 1 1 6 8 8 8 11 10 7 7 10 11 14 7 6 6 5 7 9 9 9 9 8 10 11 11 13 13 12 12 13 12 9 10 10 10 10 10 10 9 8 8 6 6 6 7 8 6 7 6 6 7 7 7 7 7 7
8 13 5 4 6 6 4 5 5 8 6 5 7 5 3 6 2 6 1 1 1 2 7 2 3 8 10 14 16 5 8 6 6 9 9 10 8 8 9 10 11 7 12 8 9 7 8 9 9 10 10 10 13 12 14 14 12 12 12 12 11 10 10 10 10 10 11 9 9 9 7 8 5 5 7 7 7 7 8 8 8 8 8 8 7 7
7 7 7 4 7 9 4 6 6 4 5 6 4 5 7 3 6 6 2 1 1 2 2 0 1 8 10 10 14 7 8 7 7 7 10 7 8 10 14 13 9 9 12 14 13 11 10 9 8 8 9 12 12 13 12 11 13 12 12 12 12 11 10 10 11 11 10 9 8 8 7 7 9 7 6 7 7 7 7 8 7 7 6 6 7 8
5 4 6 8 8 11 8 5 8 6 5 1 6 4 4 2 2 3 3 2 0 1 1 1 6 8 7 10 10 3 3 5 7 5 6 7 8 9 4 4 8 13 13 13 12 9 8 9 12 13 13 9 11 12 13 13 13 11 15 14 13 11 11 11 11 12 9 6 5 5 2 2 3 1 3 6 7 8 7 8 8 8 6 7 7 6
2 5 7 9 6 7 7 5 6 8 6 3 3 6 5 4 3 1 2 2 6 4 1 1 2 7 4 8 11 8 4 4 4 6 10 11 8 6 8 12 9 9 10 13 15 12 8 10 9 8 8 10 12 13 14 13 15 14 13 13 12 11 11 12 11 11 9 10 10 9 8 8 7 8 8 10 11 8 8 9 5 6 8 7 6 6
4 2 11 11 9 8 10 9 7 10 8 7 7 9 6 5 4 1 1 2 0 2 1 1 7 7 5 5 5 5 3 9 6 3 8 8 8 6 10 11 11 12 13 11 12 9 7 10 8 10 11 14 14 15 12 11 13 14 12 12 13 13 12 11 10 11 11 10 10 13 13 12 12 11 9 8 5 7 6 5 6 6 7 8 8 7
5 5 7 6 6 8 6 9 4 8 7 5 2 10 6 5 5 4 3 4 4 1 2 0 3 4 7 10 3 2 3 7 8 9 9 9 8 9 10 12 12 12 12 11 12 11 9 9 10 14 15 13 16 14 10 12 12 13 14 13 14 12 11 11 10 12 13 13 12 12 12 12 12 12 12 9 7 5 5 7 7 6 6 7 8 8
10 5 10 10 7 8 12 6 5 9 8 4 4 9 7 7 6 3 3 3 2 1 9 1 0 1 7 6 3 0 6 6 8 9 9 9 10 10 12 13 12 12 11 8 10 12 11 12 13 14 12 13 11 9 12 13 13 13 12 13 11 12 11 10 12 12 13 12 12 12 11 12 10 10 9 5 6 7 6 7 6 7 6 7 7 7
1 9 12 13 10 11 5 5 9 9 7 3 4 6 5 5 4 3 3 3 2 1 9 5 4 4 10 3 3 1 3 7 6 8 9 9 10 9 9 10 10 8 7 6 9 11 11 11 11 10 8 5 10 10 9 8 7 8 8 11 12 13 10 10 12 12 12 12 11 12 12 14 11 8 5 6 7 6 6 7 7 7 6 6 6 7
1 5 5 7 10 5 6 1 4 9 3 5 6 6 3 5 3 3 4 3 2 4 9 5 7 4 8 4 8 7 8 6 8 6 6 6 7 10 9 7 7 7 7 7 8 10 11 9 8 5 10 11 6 6 7 8 9 9 10 11 12 14 10 11 12 13 14 12 12 13 13 14 13 11 9 7 7 6 6 8 7 7 6 6 6 6
2 2 5 2 3 4 5 4 4 2 4 8 2 5 5 1 3 2 1 2 3 7 3 2 2 5 8 4 7 5 2 4 8 7 8 8 8 9 5 6 6 5 6 6 6 10 9 8 8 5 9 8 7 5 8 9 8 9 10 11 13 12 12 11 12 13 13 13 14 13 14 14 13 11 10 12 11 10 10 8 8 6 5 6 5 5
2 3 2 2 4 11 5 8 1 1 2 4 6 6 7 2 2 3 0 4 8 5 0 0 1 1 16 5 5 4 8 7 6 8 10 10 10 9 7 5 6 5 6 7 8 8 8 8 8 7 8 5 6 9 9 9 9 9 10 12 13 14 13 13 12 14 15 14 14 14 14 13 11 11 12 12 11 9 10 8 7 7 8 5 6 7
1 1 0 2 3 4 11 12 5 3 5 8 9 8 8 5 6 8 5 1 4 5 4 1 1 6 3 4 12 12 11 12 12 12 10 9 10 10 8 5 6 7 7 9 8 8 9 7 6 6 6 7 6 7 8 8 8 8 9 10 13 15 12 11 12 14 14 15 14 13 13 12 11 12 11 10 10 9 8 8 9 9 9 8 9 8
9 2 10 11 6 3 8 9 9 5 9 10 3 9 7 6 6 11 7 12 9 7 1 3 1 8 4 4 2 12 8 5 3 4 5 6 8 10 6 6 9 11 11 7 7 9 8 6 5 6 5 5 5 5 5 5 7 7 9 9 12 11 10 11 13 12 14 13 12 11 11 11 10 10 9 9 8 8 8 8 8 8 7 7 8 8
14 2 4 1 1 7 10 2 8 8 6 3 3 6 4 13 4 3 3 3 2 2 1 2 7 3 5 4 5 5 6 8 7 8 6 10 9 5 6 8 9 9 9 5 5 7 6 5 5 5 5 5 5 5 5 6 6 7 9 9 11 12 10 10 11 11 12 11 9 9 11 11 9 8 7 6 6 7 8 8 8 8 8 7 7 6
3 5 0 4 4 7 9 7 0 8 9 5 6 13 6 2 4 5 2 1 2 3 10 3 6 7 7 8 13 3 1 7 6 8 7 10 7 3 7 9 7 8 6 5 5 5 5 4 3 5 5 4 4 4 6 7 7 8 7 7 8 8 6 7 9 9 8 8 7 9 8 7 7 8 9 9 8 8 7 7 7 7 7 6 5 5
12 4 2 3 4 1 0 1 5 1 5 8 7 10 2 3 4 3 4 2 0 5 7 3 12 4 0 11 2 5 7 12 11 6 2 5 5 6 8 8 8 6 6 5 5 5 6 5 5 5 4 4 4 4 4 5 4 5 6 7 8 7 9 6 7 7 7 8 8 7 8 8 9 9 8 8 8 7 7 5 5 4 5 6 7 6
8 5 0 2 1 1 1 3 3 1 2 9 7 6 10 7 8 2 3 3 4 5 5 3 2 5 9 10 3 1 6 11 9 9 4 6 5 6 7 8 6 5 6 6 5 4 4 4 4 4 4 4 4 4 4 3 3 3 4 5 6 8 7 7 6 6 5 6 7 7 8 9 8 7 7 7 6 6 7 7 6 7 7 4 5 6
3 7 1 2 3 1 1 3 12 7 3 2 3 6 1 3 0 6 8 3 6 6 0 8 3 10 7 6 6 6 5 9 7 5 7 9 7 6 6 5 6 6 5 6 5 4 4 5 4 4 3 3 3 3 3 3 2 4 4 4 4 4 4 4 6 7 8 7 7 7 6 6 7 7 7 7 8 7 8 8 8 7 6 7 6 5
3 2 5 1 1 2 4 5 12 12 10 3 4 6 2 0 2 5 1 4 4 4 5 1 5 7 5 9 12 13 11 10 9 11 8 7 6 5 5 5 5 6 6 6 5 5 5 4 4 3 3 3 1 1 1 2 4 3 3 4 4 6 5 6 6 6 6 6 7 7 8 8 7 7 6 6 7 8 7 7 7 7 6 6 6 6
4 1 11 4 4 8 3 2 1 8 11 6 6 6 7 8 5 8 9 3 2 3 4 3 10 5 4 2 10 11 11 9 12 12 7 5 5 5 4 5 5 6 7 6 5 5 5 4 3 3 2 1 1 1 2 1 2 2 3 3 3 3 4 4 4 5 5 5 5 6 6 6 4 6 6 7 6 6 6 6 6 6 7 7 5 6
6 4 9 6 4 4 1 1 1 1 1 5 9 8 9 5 5 4 9 6 3 1 5 2 1 10 5 7 9 10 9 7 3 1 2 4 6 5 4 5 7 6 7 8 5 5 5 4 2 2 2 2 1 0 1 1 2 3 3 3 3 4 4 4 4 4 4 5 5 6 5 5 5 5 5 6 5 5 5 5 5 6 8 7 6 4
9 5 7 2 1 3 3 1 1 2 2 1 5 1 9 12 9 6 2 5 7 2 2 1 3 8 1 1 4 5 5 4 4 3 4 4 5 4 4 6 6 6 5 5 5 4 4 3 2 1 1 0 0 0 0 1 1 1 2 3 3 5 5 4 4 5 5 5 4 5 5 5 5 6 6 6 5 6 5 5 5 4 6 6 6 7
6 3 10 5 4 2 3 3 2 2 1 4 3 3 1 2 5 2 5 1 1 8 7 6 12 9 2 2 3 4 5 6 6 2 2 4 6 5 6 5 5 6 6 5 4 3 3 2 2 2 1 1 1 1 1 1 1 1 1 1 3 2 2 3 4 5 5 6 7 6 7 6 6 7 7 7 6 7 6 6 6 5 7 7 6 6
5 5 8 11 14 14 11 14 17 17 12 2 1 3 1 6 7 5 5 0 4 4 9 5 15 3 3 3 3 3 3 6 4 4 3 5 6 8 7 6 7 5 5 5 4 3 3 3 3 3 3 2 2 3 3 2 2 1 1 1 1 3 2 3 3 4 5 5 7 6 7 7 6 8 8 7 7 7 7 7 6 7 5 7 9 6
4 4 6 8 12 13 6 5 4 13 5 6 0 5 3 3 5 4 4 3 13 4 6 13 16 2 1 2 3 6 4 7 4 3 2 3 4 7 7 8 7 6 5 5 4 3 3 4 5 5 4 4 3 3 5 5 5 4 3 3 2 2 3 4 4 4 6 5 6 7 6 6 6 7 7 7 7 6 6 7 6 6 7 5 7 8
4 4 10 11 13 8 6 4 6 15 10 9 11 9 11 11 11 11 11 17 14 12 11 23 14 13 5 3 6 7 6 4 4 4 4 4 6 5 5 6 7 5 5 4 4 4 5 6 5 5 6 5 5 4 4 3 3 5 5 5 4 4 4 4 5 5 5 6 6 6 5 4 4 5 6 6 6 6 6 7 6 6 6 6 7 7
8 10 7 6 6 4 4 10 11 8 12 16 19 15 17 17 13 17 22 21 10 13 21 2 8 10 8 5 8 6 6 4 4 4 4 4 4 6 6 6 5 5 5 5 6 5 5 7 7 6 6 6 4 3 3 1 0 1 1 2 3 4 5 4 5 5 5 5 6 5 5 5 5 6 6 6 7 7 7 7 7 6 6 7 7 7
8 7 7 11 5 4 1 6 7 10 4 9 14 14 17 15 18 23 24 14 11 13 11 4 5 8 5 9 7 7 2 4 3 2 2 4 5 6 5 4 4 6 6 7 7 6 6 7 6 6 5 5 5 4 4 4 3 4 5 4 3 4 3 5 5 6 5 6 5 5 5 6 5 6 6 6 7 7 7 7 7 7 7 7 7 7
11 5 11 5 5 3 3 4 1 4 10 9 10 13 15 19 23 26 23 15 14 14 12 1 3 10 7 8 7 4 1 2 4 7 7 7 7 6 5 5 6 7 8 6 7 7 6 7 7 5 5 7 6 7 7 6 5 4 3 4 4 4 4 4 6 5 6 7 6 6 6 6 6 6 7 6 7 7 8 8 7 7 7 7 7 8
5 2 3 7 9 2 2 3 3 4 4 5 8 12 16 21 22 21 15 11 9 19 10 5 10 17 1 4 9 2 1 4 8 7 7 8 6 5 5 7 7 7 8 9 8 7 7 7 7 8 9 7 5 5 5 4 4 4 5 4 4 4 3 4 6 7 6 7 7 7 7 7 7 7 7 7 8 7 7 7 7 7 7 7 8 7
4 7 6 6 9 1 4 2 6 8 5 2 7 21 28 19 13 3 9 8 18 12 6 14 24 4 8 12 10 4 7 9 8 10 10 7 7 7 8 8 9 8 9 10 9 8 8 9 9 8 7 5 7 7 6 5 5 5 3 3 2 3 4 4 4 5 6 5 6 6 6 7 7 7 7 6 6 6 6 7 7 7 8 8 7 7
7 9 5 5 6 2 1 7 2 5 4 14 15 7 10 17 16 10 14 14 10 6 16 14 14 4 3 4 7 11 11 15 15 13 8 9 9 8 8 8 11 11 9 7 6 7 8 7 7 6 6 6 6 6 6 7 7 6 5 5 4 4 4 5 4 5 5 4 4 5 5 5 6 6 5 5 6 6 7 7 7 6 6 7 7 8
12 9 7 3 6 5 2 2 6 11 13 13 5 3 13 15 16 24 25 15 18 19 17 14 16 4 10 13 14 12 9 9 7 11 13 10 8 8 9 9 10 11 10 7 7 8 8 8 6 6 5 6 6 6 7 6 6 7 6 6 6 4 6 5 6 5 6 6 4 5 5 5 6 7 6 6 6 7 7 7 7 7 6 7 7 8
8 8 4 4 5 5 4 6 3 12 16 2 1 1 5 12 20 19 16 16 12 13 18 20 22 17 15 15 3 3 8 8 5 8 10 10 6 9 8 10 11 7 7 9 9 9 7 7 9 8 6 4 5 6 7 8 7 9 8 6 7 6 6 7 7 6 6 6 6 7 6 7 8 8 7 7 7 8 8 7 8 8 6 7 7 6
17 7 6 3 0 8 7 12 13 5 7 8 5 5 12 11 7 12 10 14 14 15 18 20 20 16 16 12 6 4 3 2 5 10 5 9 10 8 11 11 8 8 9 8 5 7 5 5 5 4 3 5 6 7 7 6 7 8 8 7 6 7 7 7 8 8 8 8 7 7 7 8 9 9 9 8 8 8 8 8 8 6 6 8 7 8
14 15 7 12 3 4 7 3 2 4 10 20 5 2 4 4 11 9 8 11 10 19 18 18 19 20 19 7 6 7 2 1 13 12 8 12 7 6 8 9 8 8 6 5 3 4 4 3 2 3 6 6 5 4 4 4 5 6 6 6 5 6 6 6 7 7 7 7 7 7 7 7 8 9 8 7 8 8 7 6 5 6 6 9 9 8
3 5 13 15 6 4 3 9 10 12 18 2 8 10 10 11 13 8 3 13 10 15 17 20 19 17 14 9 11 8 6 8 14 12 10 10 3 6 8 9 8 6 5 5 5 5 4 4 5 5 5 6 8 7 7 8 8 7 6 5 5 4 6 6 6 6 6 5 4 4 5 5 6 7 8 8 7 8 9 8 8 6 6 6 7 8
9 7 7 5 6 10 11 8 13 6 6 3 7 7 11 12 15 10 3 18 1 13 13 16 19 17 14 13 9 11 13 14 13 14 12 4 4 5 5 7 4 3 3 3 3 4 4 3 5 4 6 9 8 7 9 8 9 9 9 8 6 7 7 5 4 3 4 4 5 4 5 5 6 6 7 8 7 7 7 7 7 7 8 7 7 8
5 0 6 15 9 4 7 6 4 7 5 4 6 6 12 12 13 8 18 13 6 12 12 14 15 18 15 10 13 11 14 16 14 4 5 3 1 3 1 0 2 1 3 2 1 1 3 3 3 4 5 3 6 7 7 7 8 8 7 7 7 8 4 4 5 5 5 5 5 5 5 4 5 7 5 5 8 7 7 6 8 8 9 9 8 8
4 6 1 3 8 13 12 11 11 6 7 12 2 12 12 10 7 20 7 1 7 4 3 11 13 5 8 14 12 13 14 15 5 5 3 2 3 1 1 1 1 0 0 0 0 1 2 2 2 3 3 3 5 5 6 6 8 7 7 7 8 5 5 6 6 6 6 6 6 5 5 5 4 5 7 7 8 9 7 5 6 8 9 8 9 10
17 13 14 14 4 6 4 6 0 13 7 11 13 2 7 8 9 4 4 1 1 6 10 5 7 10 12 10 13 14 10 5 7 7 4 3 3 5 4 3 2 2 0 1 1 1 3 3 3 3 3 3 4 4 4 5 6 6 6 7 5 4 5 6 6 6 6 6 6 6 6 5 6 6 6 7 7 9 9 7 8 7 8 10 9 10
11 11 8 9 10 16 13 14 13 4 9 14 21 14 13 6 3 8 6 4 0 5 8 9 5 9 12 12 13 10 8 5 3 3 2 5 5 3 2 1 1 0 1 1 1 2 3 4 4 4 3 3 3 3 3 4 5 4 5 4 4 4 5 5 5 6 6 6 6 6 5 5 5 5 5 7 8 8 10 8 7 7 7 8 9 9
15 17 10 15 5 9 12 13 1 4 15 16 16 6 14 11 5 4 5 8 8 5 4 5 11 9 11 10 9 10 6 7 7 5 8 8 7 6 6 6 4 3 3 3 2 2 3 5 5 5 4 3 4 4 5 5 8 6 6 4 5 6 7 7 6 7 6 6 5 6 5 5 5 5 5 5 8 10 9 8 8 9 5 7 7 8
0 4 1 8 5 3 4 1 1 2 5 12 2 1 12 12 4 2 5 7 5 7 12 10 8 10 8 6 9 3 8 8 7 5 6 4 4 4 3 3 3 3 3 3 2 3 4 5 5 5 5 2 1 2 2 3 5 9 5 5 5 6 7 8 8 7 7 6 5 6 6 7 5 4 5 5 4 6 8 10 9 9 8 7 7 7
1 3 2 4 1 7 13 4 3 5 6 12 13 2 3 2 6 5 3 5 5 6 8 1 8 12 13 11 11 12 10 7 8 8 5 3 4 5 6 6 5 5 6 6 5 5 6 5 6 6 5 6 2 3 3 4 3 4 7 7 6 5 5 6 6 6 6 6 6 5 6 7 7 6 5 4 4 5 5 6 6 8 8 7 8 7
3 3 5 2 10 14 11 9 7 2 6 11 12 6 5 7 5 6 3 1 2 2 4 3 5 6 6 8 9 9 9 9 10 9 7 8 7 6 6 6 6 5 4 4 5 4 5 6 6 6 6 6 4 2 2 3 4 5 6 6 6 6 7 7 7 8 7 7 6 6 6 6 7 8 6 5 6 7 6 4 5 8 9 10 10 10
6 10 7 7 8 4 5 2 0 2 1 4 7 7 6 7 10 7 3 2 2 5 5 3 0 6 13 13 9 6 7 9 10 10 10 6 5 5 7 7 7 6 7 6 5 6 8 7 6 6 6 4 3 2 2 2 2 3 5 6 6 7 9 8 6 6 6 6 6 6 5 6 6 6 6 6 4 2 2 6 7 6 3 1 1 3
9 14 6 8 12 11 17 12 12 8 6 10 13 18 15 11 6 5 3 2 3 6 7 7 0 0 3 2 8 9 11 10 8 6 8 8 8 7 6 7 6 6 6 4 4 5 5 6 6 6 6 4 4 3 3 2 2 1 2 4 5 6 8 7 7 6 6 6 6 6 6 5 5 5 5 6 6 6 3 4 4 2 3 3 3 4
16 16 12 14 15 17 12 10 16 15 8 10 16 16 13 7 8 10 10 9 8 6 8 10 6 2 5 4 4 7 6 7 9 6 5 5 6 6 7 9 10 8 7 6 6 5 5 4 4 4 5 5 4 4 4 4 3 3 3 4 5 5 6 7 7 6 6 6 6 7 6 6 6 5 5 5 5 5 6 5 3 5 5 4 5 6
Wind_Direction
133 169 187 193 179 175 177 186 177 169 172 148 147 147 197 191 266 281 271 278 94 52 243 236 258 254 247 253 268 153 94 251 265 247 239 243 234 227 229 231 236 238 237 239 230 218 210 214 214 214 206 213 211 210 206 209 213 211 207 195 209 203 195 193 196 198 199 205 209 209 210 214 208 207 204 210 209 209 215 211 209 205 201 195 192 193
134 187 208 173 164 171 175 126 109 124 138 151 160 161 217 175 225 243 210 5 321 159 301 6 255 262 267 277 263 211 119 244 224 232 248 245 236 233 232 240 235 238 271 277 261 230 215 216 212 205 207 203 209 215 208 210 211 209 207 209 211 196 196 199 197 199 204 208 208 204 215 208 202 200 205 216 208 212 210 209 210 210 205 199 195 190
181 202 159 162 155 139 137 130 127 142 155 151 167 166 167 239 231 276 252 336 315 109 259 324 258 265 254 256 266 193 223 237 219 203 224 229 239 233 229 239 245 251 254 254 246 229 223 221 217 206 208 209 212 215 213 214 209 209 211 215 211 204 196 200 199 198 207 207 208 204 208 200 203 206 207 212 209 202 207 209 209 208 206 200 201 191
178 217 190 147 134 134 138 155 144 126 141 155 129 158 199 235 159 246 277 65 16 159 269 84 280 279 277 266 268 239 211 236 233 218 233 218 228 226 226 224 232 240 250 251 240 230 220 214 214 213 213 211 206 214 216 211 213 213 214 212 210 206 198 198 201 203 205 202 201 208 205 199 201 202 198 205 211 208 206 215 208 211 204 199 204 195
172 136 167 140 157 151 160 166 158 163 191 192 171 152 156 138 226 165 221 291 315 9 77 316 313 279 247 272 283 264 266 271 271 256 261 252 234 242 284 288 223 231 234 246 253 239 219 211 215 210 214 205 210 213 211 207 209 211 212 211 207 204 202 201 198 199 194 182 186 187 160 161 196 29 185 206 218 209 204 209 204 208 193 200 202 199
152 179 123 130 145 150 143 165 185 148 197 215 232 169 179 175 211 302 357 39 20 344 337 183 347 278 275 245 247 267 341 276 256 216 246 247 241 238 246 245 243 242 238 236 243 239 221 219 227 220 210 207 215 215 214 206 210 210 211 207 206 206 205 205 200 190 184 191 187 185 191 188 195 208 201 204 207 198 201 209 188 192 193 195 201 201
170 168 157 160 158 164 173 184 195 166 185 172 240 170 176 168 155 126 26 76 267 243 295 29 207 273 321 285 243 275 291 263 283 254 254 252 252 234 234 241 238 233 243 240 250 252 229 226 221 223 214 213 214 220 209 206 212 210 208 203 203 206 207 202 196 184 186 195 198 198 201 202 205 213 221 217 206 205 202 181 193 192 184 192 195 201
135 139 142 130 130 158 160 191 216 162 134 219 219 162 176 157 167 207 161 162 229 277 297 102 160 246 279 255 250 252 304 277 284 268 257 254 243 237 234 238 239 237 235 237 240 242 233 233 215 224 219 213 216 214 198 211 209 205 206 201 204 206 204 199 192 188 191 198 199 201 207 207 210 210 218 204 202 188 176 189 195 184 186 189 194 195
133 148 158 159 161 167 194 181 156 162 155 215 183 154 177 173 193 157 142 197 232 21 278 320 250 262 248 272 269 182 271 269 259 262 262 254 245 236 236 239 240 243 243 237 249 248 236 229 226 227 225 221 222 207 206 209 205 204 204 204 203 206 203 199 191 192 197 200 197 202 204 212 218 213 217 188 179 184 181 193 188 191 187 186 192 195
294 165 177 158 157 198 172 155 157 156 155 267 136 75 74 69 60 123 157 171 299 140 252 202 189 220 273 261 274 338 225 254 262 259 252 241 242 243 242 248 247 254 260 247 243 254 251 241 238 232 244 249 221 216 214 215 207 206 199 202 203 209 202 196 194 195 196 198 196 202 207 211 213 207 203 175 185 185 179 194 193 191 189 187 188 195
169 344 157 141 191 166 135 76 159 167 147 124 101 81 47 46 74 36 75 98 52 249 257 187 207 164 294 225 193 186 220 186 232 272 273 262 256 254 244 249 250 247 252 250 250 254 255 253 252 232 225 230 225 209 203 209 205 200 198 199 203 208 200 196 197 192 197 196 198 205 206 209 211 203 194 189 193 183 179 197 191 188 192 186 196 190
43 90 141 245 114 109 109 99 16 110 119 135 140 127 123 7 39 45 357 47 196 262 283 336 168 158 219 295 264 246 287 227 198 208 247 267 261 261 243 235 249 256 256 264 268 266 266 278 262 241 240 231 223 200 206 209 202 198 199 196 204 206 200 197 197 196 200 197 203 207 206 208 209 199 195 201 202 189 192 190 187 185 181 200 197 193
49 153 271 14 289 142 152 132 334 104 147 101 125 118 148 217 121 275 89 228 215 215 226 322 205 57 240 230 273 275 249 250 225 216 222 235 256 263 266 253 264 260 261 262 263 266 273 260 258 241 244 235 217 212 210 209 203 204 203 199 202 209 201 197 194 198 201 201 204 205 207 210 205 204 203 204 206 194 194 187 181 171 193 188 193 202
284 273 336 253 69 266 152 162 165 147 204 155 159 160 140 158 176 224 212 8 314 277 261 224 167 278 271 271 223 244 255 234 225 225 235 240 246 259 269 289 282 272 260 262 262 265 264 261 263 254 245 231 226 219 212 209 204 203 206 205 206 213 200 198 196 200 202 206 207 204 205 207 201 207 203 204 204 197 193 185 190 189 192 191 199 197
139 218 238 161 212 173 175 185 170 136 146 190 91 159 185 172 172 201 182 203 209 201 195 279 91 231 116 247 250 232 245 291 291 244 248 258 260 265 284 283 276 274 269 250 255 255 258 262 260 263 254 249 239 230 221 211 207 199 205 204 211 213 204 197 201 200 205 209 206 204 206 206 202 204 200 203 199 189 187 191 194 198 190 190 200 199
196 165 316 342 307 147 170 177 131 107 115 225 175 63 150 224 102 148 208 125 185 210 289 210 208 190 183 259 267 229 272 279 283 276 260 266 261 270 288 272 264 263 268 265 265 275 272 263 269 270 266 257 247 236 224 216 207 204 209 206 210 211 205 202 201 205 206 207 201 202 202 204 198 197 193 194 192 193 188 190 193 197 192 198 194 201
130 237 341 324 50 155 168 141 188 152 174 206 108 203 209 30 93 84 43 24 81 53 252 133 300 278 302 306 272 226 279 272 256 258 246 251 266 312 273 269 271 270 283 308 286 279 291 297 268 247 259 261 251 241 223 218 207 208 205 206 213 216 210 201 204 207 204 203 195 201 198 190 188 188 192 194 191 191 192 190 195 192 197 189 183 186
160 153 1 84 148 318 52 198 138 47 149 104 187 212 128 100 100 132 219 346 105 199 261 109 234 275 138 272 306 278 250 260 255 245 281 284 280 282 266 268 268 284 288 277 265 260 263 268 274 275 254 240 237 233 245 240 230 218 211 205 207 206 208 206 195 199 197 194 195 189 191 191 192 192 195 190 189 189 182 187 182 173 160 190 191 172
123 81 271 7 122 13 360 111 85 360 347 166 194 189 142 211 221 271 104 221 179 231 272 298 310 265 208 230 348 338 218 247 258 267 270 278 267 247 260 272 289 292 304 299 289 285 286 277 271 259 257 252 244 241 240 256 229 221 218 215 208 210 209 200 191 188 191 189 192 189 191 190 191 191 191 192 186 173 179 183 181 184 188 161 150 153
91 126 298 328 120 214 76 150 188 191 12 62 90 159 245 98 80 141 198 165 125 237 76 283 29 253 186 213 190 267 233 221 247 290 258 243 239 236 247 267 286 300 291 288 285 279 269 271 262 252 248 257 247 240 240 226 197 211 216 199 213 221 202 189 188 186 191 192 187 190 187 193 189 188 187 184 175 178 186 185 181 175 166 179 163 163
132 109 142 263 309 114 163 206 206 167 164 134 139 183 179 48 237 106 43 144 185 177 182 222 311 266 261 203 179 212 235 251 250 262 239 246 256 256 260 271 282 282 286 277 271 273 273 269 277 279 269 261 263 254 238 171 201 224 193 198 194 190 194 196 200 189 198 182 192 181 188 186 182 183 175 169 177 178 185 180 176 174 166 135 162 150
102 149 142 165 125 206 261 327 197 161 174 163 155 192 164 116 146 168 233 47 104 145 231 139 257 260 267 162 202 195 220 224 232 232 237 233 254 264 269 272 262 283 281 270 268 266 270 271 278 285 297 302 201 163 176 178 154 205 202 213 199 192 192 190 193 194 183 186 177 184 180 177 173 166 162 168 172 174 171 165 164 152 143 156 152 154
141 89 107 141 211 163 259 335 220 311 26 177 161 204 177 159 101 152 201 231 44 257 110 159 309 278 244 195 201 201 212 228 272 22 209 241 255 270 285 272 280 255 266 285 280 277 274 267 265 279 301 306 277 256 200 180 197 188 189 188 190 175 207 198 188 177 167 168 171 175 165 156 159 154 159 156 157 152 153 150 144 152 147 140 135 117
86 94 87 4 28 298 329 2 17 47 80 80 285 20 164 196 191 173 138 179 168 231 188 274 262 253 283 319 285 290 306 286 252 204 234 259 269 277 276 285 285 303 293 288 283 272 276 292 306 301 271 315 8 322 271 260 250 168 178 189 170 183 179 169 162 158 156 154 147 142 138 145 143 143 145 147 150 150 148 144 140 134 123 124 125 123
127 257 119 116 60 343 341 346 351 344 108 208 180 196 229 69 87 131 101 69 163 216 160 124 237 255 273 342 311 292 290 281 277 306 170 267 291 283 282 284 282 280 292 301 313 318 337 337 290 262 240 212 224 290 292 270 231 215 203 182 184 169 171 157 153 149 146 144 137 140 140 142 148 142 142 140 141 139 135 131 124 117 125 121 107 112
91 174 139 153 164 167 186 198 202 200 192 123 46 98 115 137 130 118 194 39 219 256 163 187 241 236 281 323 338 293 311 290 275 264 255 212 246 282 290 286 289 285 279 295 306 337 312 285 290 291 272 255 219 207 204 211 213 191 161 200 194 143 128 140 135 136 135 139 138 141 141 145 143 143 141 138 134 135 130 127 124 121 110 124 121 105
130 150 170 166 179 199 193 42 75 100 91 158 56 120 120 122 173 114 122 128 223 181 180 235 237 283 265 250 260 255 219 245 290 317 308 308 282 264 257 263 263 268 276 280 282 276 286 275 253 250 259 242 229 219 204 184 179 180 161 144 140 145 149 148 139 139 138 144 141 139 143 144 141 137 134 131 125 121 118 116 119 119 119 114 118 121
102 149 210 181 194 187 162 163 180 129 153 155 137 164 167 172 184 179 185 225 202 102 228 234 214 224 240 271 262 262 268 269 268 264 286 288 262 254 270 274 277 283 273 271 264 254 249 251 256 244 234 230 231 230 235 213 188 175 169 164 167 158 146 143 136 137 138 139 136 135 132 119 119 114 110 110 112 111 111 111 106 105 108 111 107 111
157 193 205 147 200 135 191 156 179 153 169 171 179 176 183 191 179 194 213 219 125 190 226 216 135 211 221 234 234 235 226 203 209 227 221 243 285 294 283 283 305 301 302 299 268 251 243 244 236 233 229 229 222 227 243 277 18 109 130 157 164 161 159 150 134 134 135 131 127 120 115 107 99 105 109 115 115 113 110 108 109 107 103 99 102 101
149 212 167 177 166 150 101 170 174 146 103 161 185 183 188 180 197 209 221 205 185 219 229 144 194 228 198 228 239 251 229 198 235 219 295 302 261 254 276 300 293 288 285 277 266 254 246 249 250 240 231 224 209 206 204 198 200 192 176 173 171 157 161 142 139 133 131 124 120 118 116 114 114 115 116 114 113 113 114 113 112 110 108 110 116 122
165 222 132 130 124 185 21 35 65 152 149 169 199 193 190 195 207 213 217 211 220 244 235 171 343 271 239 219 247 259 232 284 319 285 269 259 259 256 258 272 269 265 267 274 280 265 253 253 251 251 237 226 208 205 198 195 190 185 180 170 168 162 163 146 136 132 132 129 133 134 131 125 125 127 122 124 120 124 123 123 123 119 118 121 123 123
155 191 108 125 161 218 350 101 103 84 95 141 188 206 211 210 214 217 215 212 196 228 221 275 278 252 148 232 241 216 298 248 255 257 251 255 249 231 240 258 259 263 261 259 260 262 253 245 240 233 231 221 213 206 199 196 192 179 180 176 172 156 148 142 142 142 141 142 146 144 140 138 137 133 134 135 134 132 128 123 119 117 118 118 113 110
119 124 133 143 157 217 309 149 115 96 99 312 249 216 211 212 220 240 243 204 215 213 177 217 236 116 186 209 210 215 231 247 253 254 253 251 241 225 238 254 261 254 248 243 244 247 246 240 234 231 227 204 201 195 194 173 170 196 177 171 160 132 139 139 140 138 137 141 142 141 136 139 136 131 130 127 122 119 116 115 111 116 121 119 122 118
114 120 132 148 155 144 223 144 133 85 190 226 232 204 168 199 201 209 230 215 222 158 224 226 245 192 181 117 176 207 210 222 226 242 228 233 258 260 252 250 249 249 251 254 250 251 256 258 255 240 225 211 202 192 175 172 172 164 151 145 142 149 140 135 122 126 129 124 122 123 125 122 122 120 117 115 117 119 120 121 122 121 118 120 118 115
144 134 149 159 129 158 200 101 115 209 226 233 43 193 172 182 184 205 222 208 213 215 234 244 247 170 201 208 213 211 214 238 241 237 248 238 230 239 244 244 243 242 246 253 258 250 246 246 252 246 224 204 182 169 156 164 149 137 135 148 150 153 144 138 135 131 139 136 127 127 128 125 122 122 124 127 127 125 123 123 123 124 128 126 126 128
135 123 138 38 109 62 102 152 148 225 235 260 355 62 209 178 196 202 231 230 226 216 220 229 236 226 222 230 201 170 197 236 273 261 250 258 215 226 228 240 242 235 241 237 229 244 238 237 235 232 223 179 165 174 177 170 155 149 156 155 154 154 152 146 144 144 146 146 152 151 149 142 138 138 140 139 136 134 133 134 136 133 127 114 105 102
162 133 132 107 306 152 191 177 213 358 342 272 227 195 169 179 167 170 216 245 216 213 210 225 233 236 239 233 170 231 268 345 288 271 247 236 237 215 221 235 235 238 230 250 217 246 239 242 242 223 159 165 174 173 183 162 157 149 147 155 162 156 157 155 158 164 164 161 161 159 157 154 149 150 149 147 142 140 140 137 129 123 126 118 122 124
165 163 181 157 229 136 130 194 338 287 252 238 211 51 76 115 140 162 170 264 215 214 208 213 222 224 233 198 166 201 91 320 266 260 249 248 220 210 234 242 250 249 255 267 282 269 276 247 186 153 158 164 173 165 137 145 147 145 149 157 155 158 164 170 175 170 166 167 166 160 158 154 150 147 145 144 144 140 134 123 118 132 141 134 134 124
29 142 160 178 156 93 159 176 201 204 233 147 159 161 157 149 145 120 78 269 223 189 196 203 217 224 221 185 202 125 154 225 248 251 252 238 173 196 223 236 233 244 241 237 241 252 236 202 171 164 149 156 172 170 153 151 147 146 153 155 161 165 175 190 177 171 169 158 144 137 136 135 136 140 142 144 145 144 143 144 141 135 120 116 114 117
139 156 117 89 161 193 181 181 216 219 240 235 184 179 166 143 124 111 43 256 139 161 187 188 208 212 215 204 147 163 179 220 239 245 241 238 184 217 204 247 264 288 265 244 247 232 212 161 120 141 170 184 184 157 160 153 153 157 160 166 161 175 193 188 155 126 107 112 118 122 128 136 139 145 149 146 139 138 135 131 128 131 122 115 118 120
144 39 192 194 177 162 168 238 337 288 266 250 203 162 155 149 124 129 212 230 183 170 179 180 193 206 200 163 161 184 214 211 223 226 70 142 90 256 263 284 246 241 250 262 273 87 145 181 183 187 196 177 146 153 154 157 152 160 161 158 168 192 167 127 115 116 118 118 120 124 131 137 149 146 140 139 139 131 128 135 134 130 128 125 120 116
158 148 301 123 177 185 192 198 230 255 234 179 240 165 169 123 186 208 220 178 154 176 173 174 193 168 135 172 183 206 215 219 207 72 107 153 192 273 252 292 308 38 10 336 113 112 117 113 93 87 78 98 135 147 156 157 160 155 158 162 182 164 129 128 126 125 126 131 132 131 133 137 130 130 136 134 135 132 124 118 123 128 129 127 127 124
175 166 188 192 171 48 65 211 337 250 231 132 122 116 297 175 225 168 158 74 158 170 156 195 164 187 166 186 199 205 219 214 220 225 192 202 191 224 223 226 220 218 193 37 56 37 116 106 92 88 91 100 130 141 158 155 157 158 154 174 163 130 129 123 127 127 129 132 135 139 141 142 143 140 139 140 140 133 129 132 127 127 130 130 127 126
162 172 184 203 178 181 186 196 209 213 103 159 139 176 201 198 199 162 119 168 198 161 173 167 208 182 185 178 192 212 215 212 266 240 227 233 229 247 235 215 198 116 121 62 106 123 115 112 106 108 95 101 112 126 137 158 151 152 157 153 111 117 110 117 119 126 130 136 135 131 131 134 130 133 137 140 136 131 133 135 134 133 138 139 136 137
200 197 181 183 180 174 205 211 202 205 153 178 177 176 170 202 175 224 163 157 165 234 197 160 192 195 190 180 177 182 192 212 210 183 188 218 206 202 202 205 185 178 156 146 140 120 121 140 140 126 110 107 130 141 149 148 151 151 167 158 146 139 140 136 137 137 140 140 139 131 132 125 131 138 140 148 145 140 140 137 144 138 146 141 142 144
157 183 113 110 249 336 345 163 168 129 191 198 255 229 177 189 220 162 170 151 226 175 172 181 191 180 175 162 142 170 203 199 197 216 225 230 194 199 158 142 147 135 140 121 120 117 123 114 121 129 130 99 80 113 115 134 153 167 171 147 156 150 147 147 144 145 142 137 135 138 139 131 128 131 140 145 150 148 154 153 155 149 151 152 153 155
279 104 92 152 145 132 241 144 139 208 202 197 206 239 302 236 190 187 208 195 179 159 186 208 168 174 171 160 177 179 197 182 192 214 203 201 206 194 188 180 182 175 171 176 169 144 132 140 140 153 156 164 177 128 125 132 129 140 137 159 151 144 138 138 139 134 136 139 138 144 149 146 148 145 139 132 121 124 138 146 143 148 155 162 161 162
252 211 143 187 153 180 231 161 184 206 214 205 194 204 210 219 230 213 205 139 99 169 155 173 130 120 129 172 188 172 185 183 184 199 194 208 203 187 185 184 175 179 196 168 158 148 142 154 165 168 173 178 182 141 119 117 123 140 146 147 148 141 138 141 149 151 153 153 152 157 159 153 152 150 149 154 154 149 144 155 161 164 172 175 174 167
146 125 205 163 174 251 11 267 294 70 22 254 253 265 241 207 200 197 168 113 114 129 132 123 56 175 174 189 169 161 159 197 197 186 186 186 177 187 192 181 185 181 166 162 175 171 173 174 170 178 176 172 142 129 115 115 116 142 147 150 149 154 151 154 152 146 147 151 149 159 161 158 162 161 154 147 131 117 141 160 172 167 144 63 123 188
116 188 180 140 202 204 207 190 151 140 215 222 217 214 219 227 205 161 136 177 175 161 166 157 116 182 210 153 169 171 176 189 197 176 187 187 190 180 167 171 171 168 175 176 156 174 171 174 171 168 175 154 148 145 140 118 110 131 144 150 159 160 156 150 143 144 157 162 164 162 157 156 156 153 151 150 147 135 93 76 105 111 143 143 127 120
182 185 157 187 195 218 204 160 188 197 209 208 198 204 213 192 161 170 190 195 204 187 170 158 144 149 207 234 191 183 189 173 187 169 167 177 187 178 172 165 165 173 179 168 162 182 181 177 163 159 166 161 153 159 151 152 152 162 154 163 167 166 156 150 151 159 164 171 179 177 168 162 160 162 155 155 151 144 137 115 94 113 128 140 143 147